DUBAISAT 1

Satellite information

Favourite Embed

Satellite Type and Status

PAYLOADIN ORBIT

Key statistics

Satellite DUBAISAT 1 at a glance.

Uptime

5884

Days in orbit

Revolutions

≈ 14.7

Per day

Orbit

SSO

Sun Synchronous Orbit

Inclination

98.0

Latest

Satellite identification and parameters

Extended collection of information and parameters for DUBAISAT 1.

Object identification

Identified? True

Debris? False

Object name: DUBAISAT 1

International designator: 2009-041B

Object number (NORAD): 35682

Object ID (CCSDS): 35682

Country: UNITED ARAB EMIRATES (UAE)

Current information (Y/N): Y

RCS size: LARGE

Orbital parameters

Period: 97.681 minutes

Inclination: 97.967 deg

SMA: 7025.889 km

Apoapsis: 654.351 km

Periapsis: 641.157 km

RAAN: 22.0901 deg

Eccentricy: 0.00093899

Argument of periapsis: 259.4473 deg

Mean anomaly: 100.5678 deg

Mean motion: 14.74181125 rev/day

Mean motion (dot): 0.00002257 rev/day2

B* drag term: 0.00034933455 1/REarth

Two-line elements (TLE)

Creation date: Sept. 7, 2025, 3:09 a.m.

Reference frame: TEME

Reference center: EARTH

Epoch: Sept. 6, 2025, 9:10 p.m. UTC

TLE line 0: 0 DUBAISAT 1

TLE line 1: 1 35682U 09041B 25249.88217642 .00002257 00000-0 34933-3 0 9999

TLE line 2: 2 35682 97.9670 22.0901 0009390 259.4473 100.5678 14.74181125863348

Live tracking on map

Real-time ground track for satellite DUBAISAT 1.

In-orbit conjunctions

There are no conjunctions computed for DUBAISAT 1, at the moment. Check back to stay up to date, as we update our databases every day.

Go to all conjunctions

Associated space launch

Emirati Earth observation satellite. Launched with 5 secondary payloads.

DUBAISAT 1 was lifted into orbit during the mission ‘Dnepr | DubaiSat 1’, on board a Dnepr space rocket.

The launch took place on July 29, 2009, 6:46 p.m. from 109/95.

For more information about the launch, click the button.

Launch to space Dnepr | DubaiSat 1
Dnepr | DubaiSat 1

Agency: N/A

Status: Launch Successful

Launch date: July 29, 2009, 6:46 p.m. UTC

Rocket: Dnepr

Launch pad: 109/95

Location: Baikonur Cosmodrome, Republic of Kazakhstan

...

Latest news about this satellite

There are no fresh news available about this satellite. Check back as we update our databases every day.


Newsletter sign-up

Weekly statistics, charts and insights to help you stay on top of the space industry.